| time (UTC) | temp F | wind direction | speed MPH | gust MPH | rain 1hr in | rain 24hr in | rain mn in | humidity % | barometer mb |
| 20260508133112 | 55 | 236 | 4.0 | 10.0 | 0.00 | 0.00 | 0.00 | 63 | 1016.6 |
| 20260508131557 | 54 | 262 | 4.0 | 10.0 | 0.00 | 0.00 | 0.00 | 63 | 1016.6 |
| 20260508130119 | 55 | 246 | 3.0 | 10.0 | 0.00 | 0.00 | 0.00 | 66 | 1016.4 |
| 20260508124501 | 55 | 272 | 4.0 | 13.0 | 0.00 | 0.00 | 0.00 | 66 | 1016.4 |
| 20260508123013 | 55 | 165 | 4.0 | 9.0 | 0.00 | 0.00 | 0.00 | 66 | 1016.2 |
| 20260508121558 | 56 | 236 | 4.0 | 13.0 | 0.00 | 0.00 | 0.00 | 66 | 1016.2 |
| 20260508120116 | 54 | 252 | 3.0 | 8.0 | 0.00 | 0.00 | 0.00 | 68 | 1016.1 |
| 20260508114504 | 54 | 242 | 4.0 | 8.0 | 0.00 | 0.00 | 0.00 | 70 | 1016.0 |
| 20260508113130 | 54 | 255 | 3.0 | 10.0 | 0.00 | 0.00 | 0.00 | 70 | 1015.9 |
| 20260508111535 | 54 | 267 | 5.0 | 11.0 | 0.00 | 0.00 | 0.00 | 70 | 1015.9 |
| 20260508110101 | 56 | 339 | 3.0 | 10.0 | 0.00 | 0.00 | 0.00 | 69 | 1015.7 |
| 20260508104554 | 53 | 324 | 3.0 | 11.0 | 0.00 | 0.00 | 0.00 | 70 | 1015.8 |
| 20260508103115 | 54 | 223 | 3.0 | 11.0 | 0.00 | 0.00 | 0.00 | 68 | 1015.5 |
| 20260508101609 | 55 | 340 | 5.0 | 11.0 | 0.00 | 0.00 | 0.00 | 67 | 1015.5 |
| 20260508100120 | 54 | 212 | 4.0 | 11.0 | 0.00 | 0.00 | 0.00 | 71 | 1015.5 |
| 20260508094506 | 53 | 267 | 4.0 | 9.0 | 0.00 | 0.00 | 0.00 | 74 | 1015.3 |
| 20260508093126 | 51 | 246 | 4.0 | 9.0 | 0.00 | 0.00 | 0.00 | 76 | 1015.3 |
| 20260508091536 | 51 | 273 | 3.0 | 10.0 | 0.00 | 0.00 | 0.00 | 77 | 1015.3 |
| 20260508090012 | 51 | 325 | 4.0 | 10.0 | 0.00 | 0.00 | 0.00 | 79 | 1015.2 |
| 20260508084541 | 51 | 267 | 5.0 | 12.0 | 0.00 | 0.00 | 0.00 | 78 | 1015.1 |
| 20260508083106 | 51 | 270 | 4.0 | 10.0 | 0.00 | 0.00 | 0.00 | 79 | 1015.0 |
| 20260508081558 | 51 | 278 | 5.0 | 14.0 | 0.00 | 0.00 | 0.00 | 80 | 1014.8 |
| 20260508080112 | 51 | 256 | 4.0 | 10.0 | 0.00 | 0.00 | 0.00 | 81 | 1014.7 |
| 20260508074548 | 50 | 242 | 2.0 | 9.0 | 0.00 | 0.00 | 0.00 | 82 | 1014.6 |
| 20260508073104 | 50 | 261 | 2.0 | 8.0 | 0.00 | 0.00 | 0.00 | 82 | 1014.4 |
| 20260508071555 | 50 | 188 | 5.0 | 12.0 | 0.00 | 0.00 | 0.00 | 82 | 1014.2 |
| 20260508070114 | 50 | 250 | 5.0 | 12.0 | 0.00 | 0.00 | 0.00 | 83 | 1014.1 |
| 20260508064608 | 49 | 244 | 4.0 | 9.0 | 0.00 | 0.00 | 0.00 | 85 | 1014.0 |
| 20260508063140 | 49 | 216 | 5.0 | 10.0 | 0.00 | 0.00 | 0.00 | 85 | 1013.9 |
| 20260508061507 | 48 | 215 | 4.0 | 12.0 | 0.00 | 0.00 | 0.00 | 85 | 1013.8 |
| 20260508060008 | 48 | 155 | 4.0 | 10.0 | 0.00 | 0.00 | 0.00 | 85 | 1013.6 |
| 20260508054532 | 48 | 132 | 4.0 | 11.0 | 0.00 | 0.00 | 0.00 | 85 | 1013.4 |
| 20260508053008 | 48 | 213 | 4.0 | 10.0 | 0.00 | 0.00 | 0.00 | 85 | 1013.2 |
| 20260508051605 | 48 | 185 | 6.0 | 10.0 | 0.00 | 0.00 | 0.00 | 85 | 1013.0 |
| 20260508050100 | 47 | 159 | 5.0 | 10.0 | 0.00 | 0.00 | 0.00 | 85 | 1013.0 |
| 20260508044544 | 47 | 217 | 5.0 | 11.0 | 0.00 | 0.00 | 0.00 | 85 | 1012.8 |
| 20260508043110 | 47 | 199 | 5.0 | 12.0 | 0.00 | 0.00 | 0.00 | 85 | 1012.7 |
| 20260508041602 | 47 | 169 | 8.0 | 16.0 | 0.00 | 0.00 | 0.00 | 84 | 1012.5 |
| 20260508040130 | 47 | 234 | 5.0 | 12.0 | 0.00 | 0.00 | 0.00 | 84 | 1012.4 |
| 20260508034535 | 48 | 191 | 5.0 | 14.0 | 0.00 | 0.00 | 0.00 | 83 | 1012.4 |
| 20260508033110 | 48 | 211 | 7.0 | 15.0 | 0.00 | 0.00 | 0.00 | 83 | 1012.2 |
| 20260508031503 | 47 | 193 | 6.0 | 13.0 | 0.00 | 0.00 | 0.00 | 82 | 1012.3 |
| 20260508030016 | 47 | 157 | 6.0 | 20.0 | 0.00 | 0.00 | 0.00 | 82 | 1012.3 |
| 20260508024545 | 47 | 165 | 9.0 | 18.0 | 0.00 | 0.00 | 0.00 | 81 | 1012.2 |
| 20260508023107 | 47 | 143 | 9.0 | 15.0 | 0.00 | 0.00 | 0.00 | 79 | 1012.2 |
| 20260508021603 | 47 | 199 | 7.0 | 12.0 | 0.00 | 0.00 | 0.00 | 78 | 1012.3 |
| 20260508020126 | 47 | 158 | 7.0 | 15.0 | 0.00 | 0.00 | 0.00 | 77 | 1012.3 |
| 20260508014530 | 47 | 220 | 8.0 | 19.0 | 0.00 | 0.00 | 0.00 | 76 | 1012.3 |
| 20260508013057 | 47 | 221 | 9.0 | 19.0 | 0.00 | 0.00 | 0.00 | 76 | 1012.3 |
| 20260508011551 | 48 | 202 | 8.0 | 17.0 | 0.00 | 0.00 | 0.00 | 75 | 1012.3 |
| 20260508010132 | 48 | 207 | 8.0 | 24.0 | 0.00 | 0.00 | 0.00 | 75 | 1011.9 |
| 20260508004509 | 48 | 185 | 9.0 | 18.0 | 0.00 | 0.00 | 0.00 | 76 | 1012.0 |
| 20260508003009 | 48 | 222 | 10.0 | 17.0 | 0.00 | 0.00 | 0.00 | 76 | 1012.0 |
| 20260508001544 | 48 | 253 | 8.0 | 23.0 | 0.00 | 0.00 | 0.00 | 76 | 1012.0 |
| 20260507234552 | 48 | 220 | 9.0 | 21.0 | 0.00 | 0.00 | 0.00 | 76 | 1012.1 |
| 20260507233119 | 49 | 171 | 9.0 | 23.0 | 0.00 | 0.00 | 0.00 | 76 | 1012.0 |
| 20260507231518 | 49 | 177 | 9.0 | 17.0 | 0.00 | 0.00 | 0.00 | 76 | 1012.0 |
| 20260507230020 | 49 | 258 | 8.0 | 30.0 | 0.00 | 0.00 | 0.00 | 76 | 1011.9 |
| 20260507224537 | 49 | 189 | 7.0 | 18.0 | 0.00 | 0.00 | 0.00 | 75 | 1011.9 |
| 20260507223211 | 49 | 153 | 12.0 | 18.0 | 0.00 | 0.00 | 0.00 | 75 | 1011.8 |
| 20260507221601 | 49 | 202 | 9.0 | 24.0 | 0.00 | 0.00 | 0.00 | 75 | 1011.8 |
| 20260507220001 | 49 | 213 | 10.0 | 25.0 | 0.00 | 0.00 | 0.00 | 76 | 1011.8 |
| 20260507214542 | 49 | 205 | 9.0 | 21.0 | 0.00 | 0.00 | 0.00 | 76 | 1011.8 |
| 20260507213151 | 49 | 217 | 9.0 | 26.0 | 0.00 | 0.00 | 0.00 | 77 | 1011.8 |
| 20260507211601 | 49 | 186 | 8.0 | 20.0 | 0.00 | 0.00 | 0.00 | 77 | 1011.8 |
| 20260507210124 | 49 | 234 | 9.0 | 23.0 | 0.00 | 0.00 | 0.00 | 76 | 1011.8 |
| 20260507204520 | 50 | 168 | 8.0 | 19.0 | 0.00 | 0.00 | 0.00 | 76 | 1011.9 |
| 20260507203059 | 50 | 178 | 10.0 | 19.0 | 0.00 | 0.00 | 0.00 | 76 | 1012.1 |
| 20260507201604 | 50 | 178 | 8.0 | 19.0 | 0.00 | 0.00 | 0.00 | 75 | 1012.0 |
| 20260507200120 | 50 | 234 | 9.0 | 22.0 | 0.00 | 0.00 | 0.00 | 75 | 1011.9 |
| 20260507194528 | 51 | 209 | 6.0 | 15.0 | 0.00 | 0.00 | 0.00 | 74 | 1011.8 |
| 20260507193027 | 51 | 178 | 7.0 | 15.0 | 0.00 | 0.00 | 0.00 | 73 | 1011.7 |
| 20260507191544 | 51 | 217 | 4.0 | 12.0 | 0.00 | 0.00 | 0.00 | 73 | 1011.7 |
| 20260507190116 | 52 | 162 | 5.0 | 14.0 | 0.00 | 0.00 | 0.00 | 72 | 1011.9 |
| 20260507184523 | 52 | 198 | 6.0 | 14.0 | 0.00 | 0.00 | 0.00 | 71 | 1011.8 |
| 20260507183137 | 52 | 179 | 5.0 | 14.0 | 0.00 | 0.00 | 0.00 | 70 | 1011.7 |
| 20260507181544 | 53 | 208 | 6.0 | 13.0 | 0.00 | 0.00 | 0.00 | 68 | 1011.6 |
| 20260507180117 | 53 | 165 | 5.0 | 14.0 | 0.00 | 0.00 | 0.00 | 67 | 1011.6 |
| 20260507174518 | 54 | 195 | 8.0 | 17.0 | 0.00 | 0.00 | 0.00 | 66 | 1011.5 |
| 20260507173058 | 54 | 250 | 6.0 | 18.0 | 0.00 | 0.00 | 0.00 | 65 | 1011.5 |
| 20260507171602 | 55 | 234 | 9.0 | 18.0 | 0.00 | 0.00 | 0.00 | 63 | 1011.3 |
| 20260507170124 | 56 | 185 | 7.0 | 14.0 | 0.00 | 0.00 | 0.00 | 61 | 1011.3 |
| 20260507164536 | 57 | 187 | 7.0 | 17.0 | 0.00 | 0.00 | 0.00 | 62 | 1011.3 |
| 20260507163103 | 58 | 211 | 5.0 | 16.0 | 0.00 | 0.00 | 0.00 | 60 | 1011.5 |
| 20260507161610 | 58 | 202 | 9.0 | 15.0 | 0.00 | 0.00 | 0.00 | 59 | 1011.6 |
| 20260507160124 | 57 | 217 | 8.0 | 21.0 | 0.00 | 0.00 | 0.00 | 61 | 1011.5 |
| 20260507154530 | 59 | 198 | 7.0 | 20.0 | 0.00 | 0.00 | 0.00 | 57 | 1011.6 |
| 20260507153109 | 58 | 180 | 7.0 | 19.0 | 0.00 | 0.00 | 0.00 | 58 | 1011.8 |
| 20260507151532 | 56 | 237 | 4.0 | 17.0 | 0.00 | 0.00 | 0.00 | 63 | 1011.7 |
| 20260507150005 | 55 | 173 | 8.0 | 16.0 | 0.00 | 0.00 | 0.00 | 63 | 1011.8 |
| 20260507144527 | 54 | 179 | 9.0 | 19.0 | 0.00 | 0.00 | 0.00 | 64 | 1011.8 |
| 20260507143053 | 54 | 216 | 7.0 | 20.0 | 0.00 | 0.00 | 0.00 | 68 | 1011.9 |
| 20260507141537 | 52 | 194 | 7.0 | 18.0 | 0.00 | 0.00 | 0.00 | 69 | 1012.0 |
| 20260507134618 | 52 | 160 | 8.0 | 16.0 | 0.00 | 0.00 | 0.00 | 69 | 1012.3 |